www.pogodaiklimat.ru

Погода и климат >> Архив погоды >> Россия >> Ямало-Ненецкий АО >> Сеяха


ПОГОДА в Сеяхе

  • Прогноз погоды в Сеяхе
  • Монитор погоды в Сеяхе
  • Климат города

АРХИВ ПОГОДЫ в Сеяхе

Время (UTC), дата Ветер
(напр.,м/с)
 
Видим.   Явления Облачность Т
(С)
Тd
(С)
f
(%)
Тe
(С)
Тes
(С)
Комфортность P
(гПа)
Po
(гПа)
Тmin
(С)
Tmax
(С)
R
(мм)
R24
(мм)
S
(см)
18 10.12 ЮЗ 7-11
{12}
20 км позёмок {снег, метель} 10/10 360 м
[St]
-6.7 -7.8 92 -15 -15 1010.5 1008.1
21 10.12 ЮЗ 8-13
{13}
20 км позёмок {метель} 10/10 270 м
[St]
-6.2 -7.4 91 -15 -15 1009.8 1007.5
00 11.12 ЮЗ 10-13
{14}
20 км позёмок {метель} 10/10 240 м
[St]
-5.3 -6.2 93 -15 -15 1009.5 1007.2
03 11.12 ЮЗ 10-13
{15}
20 км позёмок {снег, метель} 9/9 240 м
[St]
-4.6 -5.3 95 -14 -14 1009.4 1007.0 -8.3 0.2 27
06 11.12 З 10-13
{15}
4000 м слабый снег {метель} 10/0 270 м
[As op]
-4.2 -4.9 95 -14 -14 1009.5 1007.2
09 11.12 З 8-12
{13}
4000 м слабый снег {метель} 10/0 270 м
[As op]
-4.1 -4.8 95 -13 -13 1010.3 1008.0
12 11.12 С 3
{12}
20 км {снег, метель} 10/10 240 м
[St]
-3.8 -4.5 95 -9 -9 1011.5 1009.2
15 11.12 СВ 3 20 км 8/8 210 м
[St]
-4.5 -5.0 96 -10 -10 1012.6 1010.3 -3.5 0.9
18 11.12 СВ 2 20 км 8/8 270 м
[St]
-5.2 -5.8 96 -10 -10 1013.2 1010.9
21 11.12 СВ 1 20 км 8/8 210 м
[St]
-5.4 -6.1 95 -8 -8 1013.3 1011.0
00 12.12 С 2 4000 м слабый снег 10/0 240 м
[As op]
-12.0 -13.3 90 -17 -17 1013.5 1011.1
03 12.12 штиль 0 500 м переохл. туман {снег} ясно -17.6 -19.6 84 -18 -18 1013.4 1011.0 -17.6 0.3
06 12.12 ЮЗ 1 4000 м дымка {снег, туман} 4/0 240 м
[Ci fib]
-17.7 -19.6 85 -21 -21 1012.4 1009.9
09 12.12 ЮЗ 5 20 км 8/8 1050 м
[Sc]
-13.7 -15.2 88 -22 -22 1010.4 1008.0
12 12.12 ЮЗ 6
{10}
20 км 8/8 720 м
[Sc]
-11.1 -12.4 90 -20 -20 1007.7 1005.3
15 12.12 ЮЗ 9-14
{14}
2000 м слабый снег {метель} 10/0 300 м
[As op]
-7.3 -8.1 94 -17 -17 1003.8 1001.4 -7.3 0.0
18 12.12 З 14-18
{18}
500 м сильная метель {снег} ?/? -4.5 -5.1 96 -15 -15 1000.2 997.9
21 12.12 СЗ 2
{20}
4000 м слабый снег {метель} 10/0 270 м
[As op]
-6.1 -6.9 94 -11 -11 1000.0 997.7
00 13.12 С 3 20 км {снег, метель} 10/10 300 м
[St]
-8.3 -9.4 92 -14 -14 1001.2 998.9
03 13.12 СЗ 7 20 км 3/0
[Ci fib]
-12.0 -13.9 86 -21 -21 1003.3 1000.9 -12.0 1 28
06 13.12 СЗ 7
{10}
20 км 6/0 300 м
[Ac trans Ci fib]
-14.4 -16.5 84 -25 -25 1006.4 1004.0 -14.9
09 13.12 З 6 20 км 4/0
[Ac trans Ci fib]
-15.9 -18.0 84 -26 -26 1008.9 1006.5
12 13.12 ЮЗ 4 20 км 3/0
[Ci fib]
-18.7 -20.6 85 -27 -27 1008.9 1006.4
15 13.12 ЮЗ 7-10
{11}
20 км 10/0
[Ac As]
-12.2 -13.7 89 -22 -22 1005.5 1003.1 -12.1
18 13.12 ЮЗ 9-12
{14}
20 км 10/0
[Ac As]
-10.8 -12.8 85 -21 -21 1001.2 998.8
21 13.12 Ю 7-11
{13}
4000 м слабый снег {метель} 10/0
[As op]
-10.6 -11.9 90 -20 -20 996.2 993.9
00 14.12 Ю 7-11
{13}
20 км позёмок {снег, метель} 10/10 270 м
[St]
-11.3 -12.8 89 -21 -21 992.0 989.7
03 14.12 Ю 6
{11}
4000 м слабый снег {метель} 10/0 270 м
[As op]
-10.3 -11.5 91 -19 -19 990.1 987.8 -12.2 0.3 28
06 14.12 В 4 20 км в посл. час снег {метель} 8/0 270 м
[Ac trans Ci fib]
-10.7 -11.9 91 -18 -18 991.1 988.7
09 14.12 СВ 6 20 км 6/0
[Ac trans]
-13.1 -14.6 88 -22 -22 995.1 992.8
12 14.12 штиль 0 4000 м слабый снег 10/0
[As op]
-16.1 -17.8 87 -16 -16 999.6 997.2
15 14.12 штиль 0 20 км {снег} 10/0
[As trans]
-15.2 -17.0 86 -15 -15 1002.3 999.9 -10.2 0.5
18 14.12 штиль 0 20 км {снег} 4/0
[Ac trans]
-17.7 -19.7 84 -18 -18 1004.7 1002.3
21 14.12 СВ 1 20 км 4/0
[Ac trans]
-20.5 -22.7 82 -24 -24 1007.4 1004.9
00 15.12 СВ 1 20 км 3/0
[Ci fib]
-18.8 -21.0 83 -22 -22 1009.4 1006.9
03 15.12 штиль 0 1000 м дымка {туман} ясно -22.8 -25.4 79 -23 -23 1010.9 1008.4 -22.8 28
06 15.12 СВ 1 1000 м дымка {туман} 3/0 300 м
[Ac trans]
-22.0 -24.4 81 -25 -25 1011.9 1009.5
09 15.12 штиль 0 1000 м дымка 4/0
[Ac trans]
-21.1 -23.5 81 -21 -21 1012.6 1010.1
12 15.12 СВ 1 500 м туман ?/? -20.3 -22.6 82 -23 -23 1013.3 1010.8
15 15.12 СВ 1 500 м туман ?/? -18.7 -20.8 83 -22 -22 1013.0 1010.6 -18.7
18 15.12 ЮЗ 3 500 м туман ?/? -16.6 -18.5 85 -24 -24 1012.0 1009.6
21 15.12 Ю 3 500 м туман ?/? -16.2 -18.0 86 -23 -23 1010.2 1007.8
03 16.12 Ю 5 20 км {снег, туман} 9/0
[As trans]
-10.7 -12.0 90 -19 -19 1004.2 1001.9 -18.7 28
06 16.12 Ю 5 4000 м дымка {снег, туман} 10/10 270 м
[St]
-7.3 -8.1 94 -15 -15 1002.2 999.9
09 16.12 З 8-10
{10}
20 км 8/0
[Ac trans Ci fib]
-3.3 -3.8 96 -12 -12 1001.3 999.0
12 16.12 З 8
{10}
20 км 8/0
[Ac trans Ci fib]
-3.1 -3.5 97 -12 -12 1001.7 999.4
15 16.12 З 8-11
{12}
20 км 9/0
[Ac trans]
-3.0 -3.4 97 -12 -12 1001.6 999.3 -2.6
18 16.12 З 7
{12}
20 км 8/0
[Ac trans]
-2.1 -2.4 98 -10 -10 1001.6 999.3
21 16.12 З 11-14
{14}
20 км 10/10 270 м
[St]
-1.3 -1.6 98 -10 -10 1001.3 999.0
00 17.12 З 13-16
{17}
2000 м метель 10/10 270 м
[St]
-0.5 -1.0 96 -10 -10 1000.3 998.1
03 17.12 З 14-18
{18}
20 км позёмок {метель} 9/9 270 м
[St]
+0.1 -0.7 94 -9 -9 1000.1 997.8 -3.1 27
06 17.12 З 14-19
{19}
20 км позёмок {метель} 9/9 270 м
[St]
-0.3 -0.8 96 -10 -10 999.1 996.8
09 17.12 З 17-22
{22}
4000 м позёмок {метель} 10/10 270 м
[St]
-0.8 -1.5 95 -11 -11 997.3 995.1
12 17.12 З 18-22
{25}
4000 м метель 10/10 300 м
[St]
-1.4 -1.9 96 -12 -12 994.5 992.2
15 17.12 З 13-17
{22}
2000 м слабый снег {метель} 10/0 270 м
[As op]
-0.6 -1.0 97 -10 -10 993.0 990.8 +0.3

 

Местоположение метеостанции Сеяха (Ямало-Ненецкий АО, Россия): широта 70.17 долгота 72.52 высота над уровнем моря 18 м.

В архиве по умолчанию представлена погода в Сеяхе за последнюю неделю. Архивные данные за месяц целиком и за предыдущие месяцы, начиная с января 2011 года, Вы можете получить, выбрав интересующий диапазон дат из раскрывающегося списка и нажав кнопку "Ввод!".


*Определитесь, кто Вы:
робот инопланетянин человек

Внимание! Время в таблицах - всемирное. Для получения местного времени необходимо прибавить поправку, которая в Сеяхе равна 5 ч.

Смотрите также архив погоды в соседних городах и на ближайших метеорологических станциях:

Погода в Тамбее (Ямало-Ненецкий АО, Россия) (148 км)
Погода в Антипаюте (Ямало-Ненецкий АО, Россия) (207 км)
Погода в Марресаля (Ямало-Ненецкий АО, Россия) (224 км)
Погода в Гыде (Ямало-Ненецкий АО, Россия) (234 км)
Погода в Новом Порте (Ямало-Ненецкий АО, Россия) (277 км)
Погода в Усть-Каре (Ненецкий АО, Россия) (310 км)
Погода в Имени Попова (Ямало-Ненецкий АО, Россия) (362 км)
Погода в Тазовском (Ямало-Ненецкий АО, Россия) (390 км)
Погода в Ныде (Ямало-Ненецкий АО, Россия) (394 км)
Погода в Карауле (Красноярский край, Россия) (402 км)

Пояснения к столбцам:

Ветер - указаны скорость ветра в м/с - средняя за 10 мин, порывы в срок и между сроками (в фигурных скобках) и направление, откуда дует ветер: С - северный, СВ - северо-восточный, В - восточный, ЮВ - юго-восточный, Ю - южный, ЮЗ - юго-западный, З - западный, СЗ - северо-западный.
Видимость - горизонтальная дальность видимости в метрах или километрах. При видимости от 1 до 10 км при отсутствии осадков обычно наблюдается дымка, при ухудшении видимости до 1 км и менее - туман. В сухую погоду видимость может ухудшаться дымом, пылью или мглою.
Явления - указаны атмосферные явления, наблюдавшиеся в срок или в последний час перед сроком; фигурными скобками обозначены явления, наблюдавшиеся между сроками (за 1-3 часа до срока); квадратными скобками обозначены град или гололедные отложения с указанием их диаметра в мм.
Облачность - указаны через наклонную черту общая и нижняя облачность в баллах и высота нижней границы облаков в метрах; квадратными скобками обозначены формы облаков: Ci - перистые, Cs - перисто-слоистые, Cc - перисто-кучевые, Ac - высококучевые, As - высокослоистые, Sc - слоисто-кучевые, Ns - слоисто-дождевые, Cu - кучевые, Cb - кучево-дождевые. Подробнее классификацию облаков см. в Атласе облаков (PDF).
T - Температура воздуха - температура, измеренная на высоте 2 м над землей.
Td - Температура точки росы - температура, при понижении до которой содержащийся в воздухе водяной пар достигнет насыщения.
f - Относительная влажность воздуха - влажноcть воздуха, измеренная на высоте 2 м над землей.
Te - Эффективная температура - температура, которую ощущает одетый по сезону человек в тени. Характеристика душности погоды. При расчете учитывается влияние влажности воздуха и скорости ветра на теплоощущения человека.
Tes - Эффективная температура на солнце - температура, которую ощущает человек, с поправкой на солнечный нагрев. Характеристика знойности погоды. Зависит от высоты солнца над горизонтом, облачности и скорости ветра. Ночью, в пасмурную погоду, а также при ветре 12 м/с и более поправка равна нулю.
P - Атмосферное давление - приведенное к уровню моря атмосферное давление.
Po - Атмосферное давление - измеренное на уровне метеостанции атмосферное давление.
Tmin - Минимальная температура - минимум температуры воздуха на высоте 2 м над землей.
Tmax - Максимальная температура - максимум температуры воздуха на высоте 2 м над землей.
R - Количество осадков - Количество выпавших осадков за период времени, мм. При наведении курсора мыши на число - период времени, за который выпало указанное количество осадков.
R24 - Количество осадков - Количество выпавших осадков за 24 часа, мм.
S - Снежный покров - Высота снежного покрова, см. При наведении курсора мыши на число - состояние снежного покрова и степень покрытия местности в баллах.